This is the latest recevied weather packets stored in our database for station/object W4SKW. If no packets are shown the sender has not sent any weather packets the latest 10 day(s).
| Time | Temp. | Humidity | Pressure | Rain* | Wind** | Luminosity | Snow |
|---|---|---|---|---|---|---|---|
| 1777787461 | 9.44° C | 81% | 1019.6 hPa | 0 mm | - | 0 W/m² | - |
| 1777787157 | 9.44° C | 79% | 1019.4 hPa | 0 mm | - | 0 W/m² | - |
| 1777786848 | 10° C | 77% | 1019.7 hPa | 0 mm | - | 0 W/m² | - |
| 1777786546 | 10° C | 77% | 1019.7 hPa | 0 mm | - | 0 W/m² | - |
| 1777786244 | 10.56° C | 75% | 1019.6 hPa | 0 mm | - | 0 W/m² | - |
| 1777785940 | 10.56° C | 73% | 1019.4 hPa | 0 mm | - | 0 W/m² | - |
| 1777785637 | 10.56° C | 73% | 1019.5 hPa | 0 mm | - | 0 W/m² | - |
| 1777785332 | 10.56° C | 71% | 1019.6 hPa | 0 mm | - | 0 W/m² | - |
| 1777785030 | 11.11° C | 69% | 1019.4 hPa | 0 mm | - | 0 W/m² | - |
| 1777784726 | 11.11° C | 69% | 1019.4 hPa | 0 mm | - | 0 W/m² | - |
| 1777784424 | 11.11° C | 70% | 1019.4 hPa | 0 mm | - | 0 W/m² | - |
| 1777784121 | 11.11° C | 72% | 1019.3 hPa | 0 mm | - | 0 W/m² | - |
| 1777783818 | 11.11° C | 69% | 1019.4 hPa | 0 mm | - | 0 W/m² | - |
| 1777783514 | 11.11° C | 70% | 1019.4 hPa | 0 mm | - | 0 W/m² | - |
| 1777783212 | 11.11° C | 70% | 1019.3 hPa | 0 mm | - | 0 W/m² | - |
| 1777782908 | 11.11° C | 68% | 1019.4 hPa | 0 mm | - | 0 W/m² | - |
| 1777782604 | 11.11° C | 70% | 1019.5 hPa | 0 mm | - | 0 W/m² | - |
| 1777782301 | 11.11° C | 69% | 1019.4 hPa | 0 mm | - | 0 W/m² | - |
| 1777781998 | 11.67° C | 73% | 1019.4 hPa | 0 mm | - | 0 W/m² | - |
| 1777781695 | 11.67° C | 72% | 1019.4 hPa | 0 mm | - | 0 W/m² | - |
| 1777781392 | 12.78° C | 62% | 1019.2 hPa | 0 mm | - | 0 W/m² | - |
| 1777781089 | 12.78° C | 62% | 1019.2 hPa | 0 mm | - | 0 W/m² | - |
| 1777780786 | 12.78° C | 61% | 1019 hPa | 0 mm | - | 0 W/m² | - |
| 1777780483 | 12.22° C | 61% | 1019.3 hPa | 0 mm | - | 0 W/m² | - |
| 1777780181 | 12.22° C | 61% | 1019.2 hPa | 0 mm | - | 0 W/m² | - |
* Rain latest hour (hover to see other rain measurements)
** Current wind speed in m/s (hover to see current wind gust speed)